Regional Weather Roundup
Issued by NWS

Home | Current Version | Previous Version | Text Only | Print | Product List | Glossary On
Versions: 1 2 3 4 5 6 7 8 9 10 11 12 13 14 15 16 17 18 19 20 21 22 23 24 25 26 27 28 29 30 31 32 33 34 35 36 37 38 39 40 41 42 43 44 45 46 47 48
781
ASUS42 KKEY 101210
RWRKEY

FLORIDA REGIONAL WEATHER ROUNDUP FOR THE FLORIDA KEYS
NATIONAL WEATHER SERVICE KEY WEST FLORIDA
700 AM EST WED FEB 10 2016

...SOUTH FLORIDA AND THE KEYS...

CITY           SKY/WX    TMP DP  RH WIND       PRES   REMARKS
FORT MYERS     CLOUDY    53  45  74 E5        30.17R
SW REGIONAL AP CLOUDY    54  45  71 E5        30.18R
NAPLES         MOCLDY    57  46  66 N8        30.17R
MIAMI          MOCLDY    56  44  64 N8        30.18R
WEST KENDALL   MOCLDY    55  48  77 N5        30.18R
HOMESTEAD      PTCLDY    56  49  77 N6        30.17R
MARATHON       MOCLDY    62  54  74 N13       30.16S
BOCA CHICA NAS CLOUDY    64  52  64 NW14      30.17S
KEY WEST INTL  MOCLDY    64  55  72 NW13G20   30.18R

...INTERNATIONAL WEATHER...

CITY           SKY/WX    TMP DP  RH WIND       PRES   REMARKS
NASSAU BAHAMAS MOCLDY    68  59  73 W6        30.15R
CANCUN MEXICO  PTCLDY    57  55  94 W6        30.25R
COZUMEL MEXICO CLEAR     63  55  77 NW12      30.25R

ADJACENT COASTAL WATERS...

STATION/POSITION TIME  SKY/WX   TEMP    WIND        PRES    WAVE
                                AIR SEA DIR/SP/G            HT/PER
                 (UTC)          (F)     (DEG/KT/KT) (MB)    (FT/S)
PULASKI SHOAL LI 1100                                 N/A
SAND KEY         1150            65     360/ 18/ 21 1021.9R
SOMBRERO KEY     NOT AVBL
LONG KEY         1100            63 64  340/ 13/ 16 1021.8R
MOLASSES REEF    1200            61 74  350/ 13/ 16 1021.5R
FOWEY ROCKS      NOT AVBL

$$




USA.gov is the U.S. government's official web portal to all federal, state and local government web resources and services.